Wetbulb
70.63 72.82 74.06 74.86 74.35 74.93 75.46 75.53 75.36 74.83 74.57 74.85 74.28 73.98 73.89 73.72 73.95 74.19 74.18 74.13 74.05 74.52 74.54 74.37 74.02 74.04 74.02 73.92 73.94 73.89 73.73 73.54 73.41 72.93 72.65 72.79 73.04 73.33 73.08 73.28 72.07 71.44 72.97
71.53 72.83 74.13 74.53 74.55 75.14 75.26 75.40 75.07 74.41 74.40 74.86 74.65 73.94 74.13 74.01 74.12 74.31 74.37 74.05 74.32 74.48 74.22 74.22 74.07 74.03 73.77 73.22 73.28 73.22 72.88 72.72 72.49 71.61 70.80 70.87 71.64 72.82 72.71 72.95 72.29 72.39 72.86
71.34 72.58 73.93 73.87 74.31 74.91 74.75 75.08 74.62 74.35 74.34 74.42 74.47 74.51 74.40 74.26 74.24 73.96 73.92 73.89 74.00 74.20 73.94 73.87 73.73 73.63 73.39 73.17 73.37 72.91 72.64 72.61 72.38 71.85 70.79 70.00 70.56 72.86 72.70 72.85 72.81 73.21 72.52
71.65 72.96 73.05 73.40 74.23 74.69 74.61 74.24 74.25 74.26 74.47 74.19 74.28 74.21 73.93 74.08 74.13 73.84 73.58 73.50 73.76 73.87 73.61 73.38 73.46 73.35 73.17 73.22 73.08 72.45 72.35 72.19 71.65 71.18 70.28 69.89 69.25 72.42 72.64 72.42 71.88 72.31 71.94
71.44 72.88 72.61 73.30 74.06 74.18 74.02 73.83 73.96 74.22 74.45 74.08 74.12 74.10 74.03 73.92 73.95 73.61 73.31 73.30 73.47 73.35 73.32 73.26 73.11 73.10 72.93 72.72 72.39 71.87 71.75 71.30 70.63 70.23 70.17 69.36 70.06 70.59 72.19 72.10 71.45 71.75 71.85
71.34 72.64 72.44 73.11 73.72 73.76 73.70 73.59 73.73 74.37 74.22 74.02 73.80 73.73 73.71 73.62 73.67 73.12 73.03 72.89 72.80 72.80 73.01 72.73 72.44 72.44 72.31 72.21 71.77 71.42 71.38 71.07 69.83 68.95 68.11 68.96 69.20 70.87 71.73 71.87 72.04 71.70 71.47
71.44 72.68 73.00 73.10 73.37 73.37 73.50 73.34 73.88 74.06 73.71 73.85 73.65 73.48 73.42 73.21 72.97 72.77 72.77 72.61 72.48 72.51 72.69 72.33 72.03 71.74 71.52 71.50 71.26 71.04 70.73 69.67 69.80 69.75 68.81 68.78 69.68 70.96 70.96 71.54 71.55 71.59 71.43
71.38 72.46 72.66 71.80 72.44 72.41 72.67 73.33 73.41 73.15 73.31 73.42 73.35 73.21 73.29 73.04 72.90 72.71 72.50 72.33 72.40 72.51 72.34 71.99 71.59 71.17 70.80 70.38 70.24 70.07 69.61 68.49 69.26 70.08 70.54 70.16 70.28 70.50 70.70 71.24 71.02 71.14 71.25
71.17 72.00 72.24 72.02 71.69 70.70 71.58 72.15 72.41 72.46 72.32 72.55 72.57 72.48 71.37 70.78 71.25 72.19 71.91 71.92 72.01 71.96 71.66 71.47 70.83 70.32 69.51 69.13 68.85 68.74 68.26 67.43 69.68 69.63 69.91 70.55 70.06 70.17 70.12 70.80 70.99 70.91 70.89
70.46 71.69 71.61 71.21 71.43 71.29 71.58 70.24 70.35 70.65 70.82 71.15 70.57 69.29 68.44 68.49 69.14 69.97 69.42 70.28 70.83 70.75 70.35 69.77 69.39 68.43 67.38 66.70 66.23 66.37 66.52 66.99 68.95 69.84 70.44 70.36 70.86 71.12 69.87 70.77 70.99 70.86 70.73
69.65 70.61 70.90 70.68 71.03 71.36 71.62 70.38 68.88 68.49 68.38 67.87 67.66 66.73 67.81 70.31 70.01 69.40 67.23 67.61 68.39 68.09 67.62 67.40 66.91 65.82 63.93 63.22 63.12 64.07 64.28 63.86 64.41 66.94 69.20 68.59 70.75 70.61 70.12 70.07 70.43 70.55 70.33
67.94 69.34 70.84 71.08 70.44 71.15 70.62 70.91 70.91 70.19 70.93 70.06 69.84 69.83 69.26 68.85 67.67 66.18 64.59 65.16 65.84 65.46 65.08 65.38 65.67 66.21 65.45 61.68 59.50 59.69 62.09 64.07 63.86 62.39 62.92 68.44 70.42 70.64 70.54 70.22 70.16 69.78 69.64
68.55 69.97 70.46 70.79 71.09 70.64 70.48 71.08 70.89 70.91 70.00 68.70 68.16 65.82 65.84 64.91 64.35 63.91 63.90 64.19 64.49 63.32 64.67 65.24 64.17 63.77 63.93 63.11 60.52 57.03 57.35 58.13 61.98 62.85 61.28 67.08 69.09 69.94 70.22 70.11 69.85 69.53 69.10
68.93 69.33 70.62 70.83 70.30 70.01 70.59 70.02 70.32 69.23 68.63 67.17 65.82 65.98 66.09 65.28 64.68 63.92 63.73 64.79 64.65 65.32 65.24 64.74 62.85 60.95 59.38 60.16 60.78 59.72 57.44 57.56 57.43 58.96 58.87 62.60 67.86 68.36 68.98 69.64 69.51 69.16 68.74
68.46 69.18 69.50 70.01 69.42 69.41 68.97 69.58 68.48 67.26 66.93 65.55 65.40 66.01 66.78 66.17 64.45 63.03 63.46 64.31 64.64 64.42 64.39 62.55 60.79 59.63 58.61 58.18 57.44 55.72 55.90 58.61 58.34 56.46 57.19 60.39 63.61 67.20 67.66 68.30 68.84 68.83 68.54
68.45 68.53 69.55 68.83 68.80 68.70 68.03 67.77 66.80 66.51 65.49 65.94 66.17 66.41 67.01 66.27 64.03 62.27 61.92 63.82 63.68 63.98 63.26 61.16 57.78 57.44 58.04 57.59 54.72 54.12 53.12 52.99 54.66 54.48 56.42 58.07 59.90 62.82 67.03 68.11 68.89 68.60 68.20
67.93 69.09 68.30 68.69 68.15 67.68 67.25 66.46 65.95 65.17 65.35 64.81 65.74 65.04 65.80 65.38 63.74 62.68 62.91 62.65 62.58 62.65 60.97 58.56 57.97 57.68 58.40 57.28 53.53 50.24 50.94 51.97 52.46 54.12 54.53 54.80 56.83 59.24 64.86 68.00 68.18 68.00 67.83
67.94 67.69 67.42 67.83 67.30 66.60 66.13 65.22 64.64 65.08 64.24 64.17 63.84 64.50 64.55 64.57 64.25 63.70 62.89 61.94 61.29 59.94 59.33 57.96 58.19 55.77 55.51 55.25 51.17 50.11 49.41 49.25 51.45 51.90 52.04 52.61 54.04 56.43 61.21 66.38 66.78 67.22 67.44
66.65 66.75 66.74 66.87 66.54 65.44 64.67 64.07 64.38 63.70 63.17 62.95 63.51 64.04 63.91 64.04 63.46 62.96 62.23 60.46 59.88 59.35 60.23 60.09 59.21 57.76 55.00 52.03 48.36 46.60 45.74 47.24 50.22 50.49 49.21 49.70 51.03 53.28 56.39 59.63 62.15 64.83 65.88
66.97 66.95 66.24 65.77 64.78 63.98 63.60 63.11 62.06 61.69 61.30 61.63 62.75 63.27 63.15 62.18 62.49 62.44 60.91 60.22 60.86 60.44 59.61 59.14 57.75 57.24 54.89 49.92 46.22 43.78 43.57 45.45 48.02 47.30 47.08 47.86 48.65 50.49 52.15 54.68 56.90 59.85 62.59
66.05 65.19 64.60 64.20 63.69 62.85 61.61 59.97 59.65 58.62 59.31 59.65 61.22 61.93 61.84 61.48 61.70 61.40 60.21 59.97 60.21 58.87 58.46 58.02 56.80 54.11 52.37 49.12 46.12 43.56 41.97 42.44 44.53 45.40 45.47 45.38 45.91 47.26 48.45 50.74 53.19 56.22 56.76
64.22 63.93 63.74 63.11 62.54 62.44 62.14 61.56 60.76 59.17 59.08 58.91 58.56 59.31 61.39 61.29 61.31 60.44 59.72 59.29 59.47 58.11 57.11 55.67 54.22 52.55 52.37 54.18 54.09 49.87 44.65 43.44 42.03 43.58 44.06 44.37 44.25 45.48 45.25 46.15 48.51 52.40 54.86
63.57 62.67 62.65 62.15 61.78 61.80 62.07 58.78 55.32 54.01 53.98 54.72 55.69 56.53 59.06 60.82 60.40 60.10 59.82 59.19 58.66 57.65 55.10 54.30 53.98 53.12 50.84 51.97 56.47 54.68 50.70 48.32 40.89 42.37 43.28 42.86 42.90 44.41 43.10 43.97 45.77 48.15 52.52
63.20 62.79 62.00 61.25 61.20 61.01 59.37 58.39 57.37 56.81 54.17 55.05 56.12 57.11 56.61 60.09 59.63 59.70 59.70 58.98 58.14 56.94 55.01 54.71 54.78 54.84 52.74 49.64 51.47 48.74 52.61 51.55 47.93 39.95 43.06 42.72 42.74 41.97 42.06 42.19 43.07 45.95 48.19
62.82 62.06 61.56 60.79 60.43 59.72 58.92 59.45 59.19 57.70 57.74 55.79 55.86 54.90 54.96 57.43 59.04 58.71 58.98 58.82 57.02 56.45 55.98 55.22 54.56 54.62 54.20 51.19 51.16 49.17 49.50 51.71 52.56 47.26 40.01 39.80 42.24 41.76 41.59 41.21 42.04 42.95 45.91
61.74 61.18 60.64 59.40 58.49 58.81 58.97 59.12 59.77 59.08 56.38 54.70 52.38 52.74 53.60 54.41 57.17 58.25 58.30 58.00 57.30 56.36 55.31 54.68 54.47 54.07 54.92 53.29 51.12 49.80 49.51 48.97 47.61 47.25 44.06 40.51 39.62 40.04 41.65 41.68 40.86 41.82 44.60
MSLP
1008.59 1009.70 1010.94 1011.39 1011.94 1012.31 1012.66 1012.94 1013.33 1013.70 1013.95 1014.18 1014.47 1014.75 1014.93 1015.27 1015.38 1015.57 1015.71 1015.95 1016.08 1016.15 1016.20 1016.48 1016.69 1016.90 1017.16 1017.31 1017.55 1017.69 1017.87 1017.92 1018.16 1018.32 1018.38 1018.51 1018.42 1018.41 1018.49 1018.33 1018.46 1018.74 1018.97
1008.31 1009.78 1010.90 1011.47 1011.94 1012.40 1012.83 1013.08 1013.53 1013.93 1014.16 1014.40 1014.73 1014.98 1015.13 1015.47 1015.63 1015.87 1016.04 1016.29 1016.42 1016.49 1016.75 1016.90 1017.11 1017.36 1017.60 1017.86 1018.08 1018.23 1018.43 1018.51 1018.67 1018.74 1018.94 1019.04 1019.08 1019.09 1019.25 1019.11 1019.08 1019.38 1019.42
1008.27 1009.62 1010.84 1011.54 1011.99 1012.51 1012.96 1013.29 1013.72 1014.09 1014.30 1014.64 1014.97 1015.20 1015.43 1015.75 1015.92 1016.17 1016.42 1016.59 1016.79 1016.91 1017.16 1017.38 1017.63 1017.83 1018.14 1018.30 1018.49 1018.71 1018.85 1018.90 1018.97 1018.91 1018.94 1019.25 1019.66 1019.66 1019.72 1019.78 1019.80 1019.82 1019.96
1008.23 1009.53 1010.52 1011.57 1012.01 1012.60 1013.07 1013.54 1013.92 1014.23 1014.45 1014.82 1015.19 1015.48 1015.70 1016.03 1016.26 1016.57 1016.84 1016.98 1017.23 1017.40 1017.67 1017.96 1018.17 1018.47 1018.71 1018.84 1019.01 1019.11 1019.15 1019.20 1019.25 1019.13 1019.21 1019.54 1019.90 1020.19 1020.21 1020.19 1020.31 1020.43 1020.59
1008.37 1009.40 1010.55 1011.54 1012.10 1012.62 1013.10 1013.58 1014.03 1014.31 1014.64 1014.98 1015.38 1015.69 1016.01 1016.23 1016.49 1016.81 1017.10 1017.58 1017.78 1018.00 1018.24 1018.52 1018.71 1019.01 1019.20 1019.38 1019.57 1019.62 1019.50 1019.45 1019.55 1019.51 1019.80 1019.94 1020.22 1020.71 1020.65 1020.67 1020.78 1020.91 1021.09
1008.54 1009.43 1011.04 1011.62 1012.11 1012.64 1013.24 1013.70 1014.09 1014.40 1014.83 1015.19 1015.59 1015.90 1016.24 1016.56 1016.87 1017.10 1017.49 1017.90 1018.26 1018.52 1018.71 1019.07 1019.34 1019.58 1019.80 1019.95 1020.13 1020.10 1019.95 1019.66 1019.41 1019.77 1020.26 1020.68 1020.83 1021.18 1021.24 1021.28 1021.31 1021.50 1021.63
1008.61 1009.70 1011.06 1011.83 1012.23 1012.69 1013.29 1013.79 1014.19 1014.63 1015.05 1015.38 1015.82 1016.18 1016.52 1016.84 1017.30 1017.66 1017.94 1018.39 1018.71 1018.97 1019.26 1019.57 1019.89 1020.12 1020.40 1020.61 1020.70 1020.66 1020.51 1020.08 1019.71 1020.20 1020.72 1021.12 1021.50 1021.62 1021.71 1021.83 1021.92 1021.95 1022.12
1009.04 1010.22 1011.07 1012.06 1012.47 1012.90 1013.36 1013.84 1014.35 1014.87 1015.33 1015.65 1015.97 1016.37 1016.73 1017.13 1017.57 1018.07 1018.45 1018.79 1019.05 1019.44 1019.77 1020.02 1020.30 1020.66 1021.01 1021.17 1021.22 1021.07 1020.81 1020.72 1020.64 1021.19 1021.60 1021.79 1022.03 1022.12 1022.20 1022.32 1022.52 1022.56 1022.58
1009.82 1010.65 1011.10 1011.98 1012.62 1013.17 1013.64 1014.13 1014.63 1015.17 1015.55 1015.85 1016.27 1016.54 1016.84 1017.32 1017.83 1018.41 1018.89 1019.33 1019.57 1019.82 1020.26 1020.50 1020.90 1021.27 1021.57 1021.71 1021.70 1021.55 1021.47 1021.34 1021.45 1022.02 1022.25 1022.32 1022.47 1022.49 1022.63 1022.80 1022.95 1023.06 1023.14
1010.34 1010.77 1011.19 1011.69 1012.42 1013.04 1013.78 1014.36 1014.98 1015.47 1015.86 1016.22 1016.64 1017.07 1017.42 1017.87 1018.38 1018.79 1019.32 1019.73 1020.13 1020.43 1020.84 1021.16 1021.55 1021.83 1022.13 1022.32 1022.40 1022.25 1022.11 1022.24 1022.21 1022.47 1022.81 1022.94 1022.86 1022.93 1023.06 1023.26 1023.34 1023.46 1023.61
1010.63 1010.84 1011.17 1011.53 1012.03 1012.73 1013.59 1014.62 1015.28 1015.86 1016.27 1016.67 1017.05 1017.38 1017.69 1018.10 1018.69 1019.06 1020.01 1020.40 1020.72 1021.18 1021.69 1022.01 1022.24 1022.49 1022.85 1023.04 1023.18 1023.29 1023.15 1023.43 1023.50 1023.55 1023.69 1023.50 1023.38 1023.46 1023.51 1023.83 1023.96 1024.04 1024.04
1010.31 1010.72 1011.07 1011.48 1011.89 1012.59 1013.52 1014.57 1015.17 1016.03 1016.34 1016.83 1017.30 1017.48 1017.70 1018.44 1019.25 1019.96 1020.63 1021.10 1021.51 1021.91 1022.19 1022.46 1022.60 1022.65 1022.79 1023.44 1023.69 1024.07 1024.17 1024.05 1024.41 1024.72 1024.76 1024.05 1023.78 1023.98 1024.04 1024.27 1024.41 1024.65 1024.78
1009.40 1010.42 1010.92 1011.25 1011.58 1012.39 1013.32 1014.14 1015.19 1015.80 1016.39 1017.02 1017.52 1018.10 1018.68 1019.30 1020.01 1020.62 1021.21 1021.69 1021.89 1022.10 1022.29 1022.43 1022.78 1023.03 1023.14 1023.54 1024.10 1024.76 1025.04 1024.92 1024.97 1025.31 1025.35 1024.53 1024.53 1024.55 1024.45 1024.46 1024.77 1025.17 1025.22
1009.01 1009.81 1010.41 1011.10 1011.66 1012.46 1013.08 1013.93 1014.87 1015.68 1016.38 1017.23 1017.90 1018.32 1018.71 1019.41 1020.17 1020.54 1021.14 1021.34 1021.62 1021.81 1022.03 1022.56 1023.32 1024.06 1024.26 1024.46 1024.64 1025.27 1025.49 1025.62 1025.88 1026.15 1025.98 1025.52 1025.40 1025.10 1024.94 1024.96 1025.25 1025.43 1025.60
1008.50 1009.68 1010.50 1010.96 1011.75 1012.58 1013.21 1013.77 1014.90 1015.90 1016.59 1017.47 1017.93 1018.48 1018.82 1019.15 1019.88 1020.74 1021.47 1021.55 1021.84 1022.27 1022.40 1023.26 1024.00 1024.54 1024.85 1025.15 1025.46 1025.82 1025.80 1025.90 1026.39 1026.78 1026.70 1026.19 1026.17 1026.02 1025.63 1025.52 1025.57 1025.58 1025.92
1008.39 1009.45 1010.36 1010.97 1011.82 1012.47 1013.36 1014.09 1014.96 1015.96 1016.85 1017.51 1018.08 1018.48 1018.61 1018.97 1020.03 1020.93 1021.62 1021.61 1022.12 1022.43 1022.84 1023.74 1024.61 1024.98 1025.21 1025.66 1026.19 1026.69 1027.12 1027.36 1027.42 1027.37 1026.91 1027.03 1026.83 1026.55 1026.06 1025.85 1025.90 1026.09 1026.35
1008.10 1009.08 1009.95 1010.93 1011.85 1012.73 1013.46 1014.22 1015.04 1016.02 1016.78 1017.58 1018.09 1018.35 1018.89 1019.39 1020.16 1020.85 1021.27 1021.80 1022.34 1022.98 1023.52 1024.37 1024.80 1025.17 1025.46 1026.12 1027.21 1027.87 1027.80 1027.78 1027.93 1027.93 1027.80 1027.62 1027.53 1027.18 1026.31 1026.03 1026.17 1026.47 1026.74
1007.96 1008.94 1009.94 1010.96 1011.84 1012.81 1013.53 1014.40 1015.17 1015.87 1016.82 1017.54 1018.11 1018.50 1019.23 1019.63 1020.29 1020.73 1021.33 1021.98 1022.83 1023.60 1024.00 1024.39 1024.79 1025.60 1026.04 1026.71 1027.78 1028.19 1028.57 1028.51 1028.56 1028.57 1028.66 1028.57 1028.49 1028.12 1027.22 1026.69 1027.01 1027.12 1027.28
1007.88 1008.72 1009.86 1010.68 1011.47 1012.58 1013.52 1014.41 1015.20 1016.07 1017.00 1017.62 1018.21 1018.62 1019.26 1019.75 1020.38 1020.86 1021.52 1022.43 1023.14 1023.52 1023.78 1024.18 1024.79 1025.48 1026.29 1027.37 1028.37 1029.08 1029.51 1029.50 1029.36 1029.66 1029.46 1029.34 1029.30 1028.81 1028.33 1028.16 1027.69 1028.15 1028.20
1007.56 1008.68 1009.66 1010.38 1011.28 1012.37 1013.51 1014.56 1015.65 1016.49 1017.31 1017.81 1018.12 1018.74 1019.44 1019.73 1020.45 1020.90 1021.78 1022.56 1022.88 1023.14 1023.78 1024.31 1024.91 1025.59 1026.50 1027.62 1028.75 1029.71 1030.40 1030.40 1030.28 1030.44 1030.56 1030.41 1030.07 1029.61 1029.48 1029.39 1029.46 1029.51 1029.44
1007.51 1008.38 1009.36 1010.34 1011.36 1012.11 1013.31 1014.42 1015.70 1016.39 1017.34 1018.06 1018.34 1018.89 1019.26 1019.74 1020.39 1021.01 1021.80 1022.42 1022.90 1023.30 1023.86 1024.43 1025.18 1025.87 1026.95 1028.06 1028.36 1030.03 1030.99 1031.24 1031.01 1031.12 1031.35 1031.39 1031.37 1031.21 1031.08 1030.71 1030.76 1030.81 1030.76
1007.30 1008.50 1009.51 1010.32 1011.05 1011.94 1012.65 1013.84 1015.08 1016.19 1017.22 1017.89 1018.50 1019.09 1019.12 1019.74 1020.32 1020.95 1021.69 1022.28 1022.74 1023.37 1023.99 1024.72 1025.35 1026.09 1026.94 1027.26 1027.62 1028.81 1030.45 1031.48 1031.67 1031.88 1031.98 1032.20 1032.49 1032.42 1032.23 1032.24 1032.05 1031.79 1031.66
1007.12 1008.38 1009.18 1010.06 1010.90 1011.94 1012.86 1013.60 1015.16 1016.33 1017.53 1018.38 1018.84 1019.31 1019.40 1019.77 1020.40 1020.91 1021.54 1022.09 1022.64 1023.19 1023.96 1024.69 1025.33 1025.85 1026.46 1027.25 1027.18 1027.44 1028.83 1029.87 1031.44 1032.26 1032.40 1032.67 1032.89 1032.92 1033.28 1033.16 1032.96 1032.72 1032.53
1007.10 1008.37 1009.14 1010.03 1010.96 1012.04 1012.79 1013.25 1014.06 1015.28 1016.59 1017.65 1018.27 1018.92 1019.51 1019.69 1020.41 1020.87 1021.42 1022.02 1022.61 1023.20 1023.97 1024.58 1025.05 1025.52 1026.15 1026.74 1027.36 1027.73 1027.55 1027.65 1029.37 1031.65 1032.38 1032.88 1033.26 1033.60 1033.82 1033.90 1033.83 1033.64 1033.50
1007.14 1008.11 1009.09 1009.99 1010.74 1011.56 1012.54 1013.10 1013.47 1014.83 1015.95 1017.04 1018.24 1019.02 1019.54 1019.77 1020.32 1020.88 1021.31 1021.81 1022.48 1023.02 1023.64 1024.22 1024.85 1025.27 1025.86 1026.52 1026.90 1027.53 1027.79 1027.74 1028.06 1029.37 1031.44 1032.72 1033.27 1033.85 1034.23 1034.43 1034.53 1034.50 1034.34
1007.15 1008.17 1008.93 1009.72 1010.55 1011.36 1012.31 1013.07 1012.96 1014.10 1015.37 1016.61 1017.95 1018.82 1019.46 1019.88 1020.16 1020.69 1021.18 1021.76 1022.31 1022.81 1023.29 1023.99 1024.60 1025.15 1025.56 1026.09 1026.64 1026.91 1027.11 1027.38 1028.03 1028.66 1030.17 1032.07 1032.85 1033.83 1034.18 1034.51 1034.78 1034.87 1034.78
Wind_Speed
14 19 16 17 16 15 16 16 16 14 14 15 15 15 15 14 14 14 14 14 13 15 18 19 19 20 19 18 19 20 20 20 20 19 17 17 17 17 16 14 17 18 18
18 21 16 18 16 15 16 16 15 14 14 15 15 15 15 14 14 14 14 15 15 17 19 20 19 20 20 20 20 19 19 19 18 18 16 16 14 17 19 17 17 17 20
20 21 20 19 17 15 17 16 16 14 15 14 14 15 15 15 14 13 14 15 16 18 18 19 20 20 19 19 18 18 17 13 11 9 12 13 14 16 19 16 16 18 20
19 20 20 18 18 16 17 16 15 14 14 15 14 14 15 14 14 15 14 15 17 18 19 20 20 19 18 17 17 16 13 8 6 5 10 11 13 15 18 18 17 19 19
19 20 16 19 18 16 15 14 14 15 14 15 14 14 14 15 16 16 16 18 17 17 18 19 18 17 17 16 15 13 9 6 5 9 9 9 10 12 16 17 17 17 18
18 19 21 19 18 18 16 14 14 16 15 15 14 15 15 16 17 18 18 18 18 18 19 18 17 17 16 16 14 11 4 2 2 14 12 13 12 14 16 17 16 16 17
18 17 20 19 17 19 17 15 15 15 15 15 15 16 17 18 18 20 20 19 19 19 19 19 19 19 17 16 13 11 9 5 9 12 13 12 11 15 15 16 17 16 16
16 14 18 17 16 17 17 16 16 15 14 14 15 17 18 19 20 20 20 19 20 19 19 20 20 20 19 17 16 15 13 9 10 13 10 9 13 15 15 16 17 17 17
13 11 15 18 15 13 14 15 15 15 14 15 15 17 20 21 22 22 20 19 19 20 19 19 20 20 19 18 17 16 15 11 13 8 8 7 12 16 15 14 16 16 17
10 12 16 16 17 16 14 14 14 14 14 14 14 14 16 16 16 19 20 21 20 21 21 21 20 21 21 20 19 18 16 17 10 9 6 6 12 15 15 14 16 16 17
9 13 14 16 17 16 15 13 15 15 15 16 15 16 16 13 16 17 15 20 21 22 21 21 21 21 21 20 20 15 14 8 11 9 6 8 12 14 15 13 16 17 18
13 14 14 16 16 15 11 16 15 15 13 11 14 15 10 11 11 13 16 19 19 19 19 18 15 13 13 8 7 13 6 10 8 8 8 11 11 13 14 14 16 16 17
20 15 16 17 16 17 13 10 7 7 8 9 10 10 12 11 10 9 8 7 9 10 8 10 9 7 10 9 7 8 7 7 5 6 14 20 8 10 13 14 16 16 17
21 19 19 18 14 15 12 9 11 8 8 6 9 12 9 7 9 8 5 9 8 6 9 8 7 10 9 12 11 11 7 6 5 6 12 23 16 7 8 12 15 17 18
20 19 18 17 13 13 12 10 9 9 8 9 9 10 8 9 8 8 7 7 8 7 8 10 9 8 10 11 11 11 10 11 10 5 4 20 21 15 5 8 13 16 18
19 18 18 16 15 13 12 13 9 9 10 8 10 10 11 8 9 8 7 7 8 7 8 9 8 7 8 9 12 11 12 10 10 8 5 6 19 21 7 11 14 16 17
17 19 19 18 17 14 15 12 10 9 10 8 7 10 10 10 12 10 8 8 8 7 11 9 9 8 8 10 12 11 9 10 9 10 9 7 8 14 13 12 16 17 18
17 20 16 15 19 15 15 11 9 11 9 7 6 8 12 12 14 11 8 8 8 8 8 8 8 8 8 9 8 8 8 9 10 11 9 8 8 7 14 17 15 20 23
17 17 17 17 19 17 15 11 11 12 9 7 7 9 13 13 12 10 8 9 10 8 8 8 8 9 9 9 9 8 8 7 8 8 11 11 11 10 9 20 23 19 23
18 15 19 15 17 17 12 11 8 9 8 7 9 9 12 10 12 10 9 11 10 8 8 8 10 9 9 10 10 9 7 6 7 8 9 8 11 13 12 12 11 13 20
18 20 15 16 17 14 12 11 10 9 9 8 7 12 12 12 12 11 9 10 9 9 10 10 10 12 10 10 8 7 7 8 9 8 7 7 10 11 11 11 8 6 9
17 16 16 16 17 14 13 11 8 9 6 7 7 7 10 13 12 11 11 10 10 9 11 10 11 9 8 7 5 5 3 2 6 6 6 7 9 7 9 10 10 10 8
20 15 15 16 16 14 14 11 8 7 6 4 7 7 7 13 12 11 12 10 11 9 9 11 11 13 7 3 6 1 4 3 3 2 6 6 7 7 6 7 9 9 9
16 15 16 16 18 14 15 15 20 12 11 6 8 8 7 12 12 11 12 11 10 8 10 10 9 7 8 6 3 1 2 5 4 4 2 4 6 6 7 5 6 8 8
16 14 16 17 16 14 16 15 16 14 10 9 6 10 8 9 12 11 11 11 11 8 10 11 11 8 7 7 4 3 3 2 4 4 4 4 4 5 4 5 5 5 7
13 14 15 17 14 14 15 15 17 20 14 13 9 9 8 7 8 11 11 10 10 9 11 10 9 9 8 7 5 4 5 4 5 3 4 5 6 3 4 4 4 3 3
Wind_Direction
150 148 160 152 152 143 140 142 140 139 139 133 128 123 119 122 115 111 112 112 113 116 114 111 110 103 99 94 89 85 83 84 85 82 70 72 72 71 71 85 90 83 82
153 150 161 152 152 146 143 140 138 141 141 133 134 130 125 127 120 119 119 117 116 115 116 112 110 106 101 99 93 91 91 92 95 96 89 75 70 75 75 73 81 84 81
155 152 158 151 150 149 145 138 141 148 137 136 139 135 131 130 123 121 120 120 116 112 112 112 107 101 99 99 97 98 100 105 115 125 92 83 79 79 86 82 82 85 86
154 153 159 153 150 151 146 146 151 148 139 138 139 137 134 128 125 121 118 115 112 109 109 107 102 101 99 95 97 101 98 86 102 75 77 84 86 78 91 86 85 88 88
155 154 149 155 151 149 146 150 153 143 134 133 140 139 136 132 126 126 121 109 104 103 104 100 99 97 94 93 95 96 95 109 119 96 114 91 86 83 84 89 88 86 87
160 154 143 155 153 150 154 158 151 138 135 135 140 142 136 131 125 122 115 107 105 104 103 101 98 95 95 92 92 94 64 334 63 78 89 78 84 91 83 83 86 90 99
165 134 152 157 156 153 156 153 140 139 140 139 142 140 135 128 120 114 108 108 107 104 102 101 98 92 88 85 70 47 16 36 74 84 87 89 90 92 95 87 86 87 92
146 142 152 156 155 153 155 146 139 140 138 139 140 140 137 127 120 117 112 108 105 104 103 102 95 92 88 86 62 43 31 47 81 82 83 88 93 91 94 88 89 89 94
149 163 152 163 155 148 139 137 135 133 134 135 134 142 145 132 126 119 112 108 104 101 100 100 100 96 92 82 66 51 40 35 81 84 92 94 97 98 97 95 92 89 94
153 166 157 160 164 164 153 130 126 122 120 121 116 107 105 107 112 112 113 105 103 98 97 98 98 94 88 76 58 49 42 35 52 90 82 90 93 95 102 96 96 94 99
166 168 165 161 167 163 157 132 121 113 111 115 116 120 130 129 125 117 98 98 95 97 96 96 94 91 83 75 65 45 65 51 48 35 40 81 93 95 104 94 95 92 99
175 173 176 168 165 155 148 155 147 139 143 132 133 147 120 101 95 97 92 97 97 102 102 95 96 111 94 74 63 49 37 76 58 47 21 26 88 98 101 100 97 96 96
180 173 180 169 170 155 156 157 148 150 140 139 111 107 110 110 105 106 108 112 118 124 117 120 87 65 83 86 80 61 45 47 46 57 23 27 58 103 109 110 108 107 99
180 178 178 167 166 162 158 155 152 144 141 125 120 125 127 127 123 118 120 129 133 127 124 104 92 96 87 78 77 82 59 73 54 44 30 36 38 34 105 117 116 115 106
179 172 180 167 151 160 147 152 143 137 134 131 136 140 143 137 126 114 123 142 118 131 121 111 103 98 89 83 77 65 49 52 52 41 34 39 36 29 65 114 123 118 112
176 169 173 161 154 152 148 143 139 138 133 146 148 163 160 146 131 131 142 136 134 130 117 110 106 96 96 91 75 66 72 55 55 35 38 31 33 27 7 151 131 118 111
181 173 174 165 154 155 144 139 140 138 142 139 158 145 146 146 139 141 143 139 133 117 114 116 114 107 99 89 82 71 57 59 52 39 34 34 17 14 4 139 113 114 110
189 177 173 167 162 152 147 140 139 138 138 140 145 145 160 149 151 144 143 129 126 131 128 126 120 107 96 94 80 64 60 47 50 46 35 33 28 20 35 73 95 102 104
188 178 171 164 158 149 144 137 137 133 137 137 155 161 159 150 152 144 139 131 144 141 142 134 127 125 119 99 86 66 50 41 50 44 41 29 19 31 38 44 57 86 92
191 170 169 165 160 145 139 133 127 127 134 141 157 162 154 150 160 148 141 150 150 145 138 137 130 122 112 108 93 72 57 45 52 44 38 32 23 24 35 36 43 47 65
183 184 170 168 161 150 146 143 143 148 150 144 158 164 157 155 164 151 148 153 153 146 145 141 132 128 122 130 110 88 69 52 45 46 41 37 32 33 29 39 41 46 50
183 175 171 166 159 168 157 153 159 148 151 144 141 155 160 165 163 159 157 159 157 149 147 144 145 136 133 180 129 126 119 84 44 37 45 46 42 42 39 30 32 38 57
183 176 179 168 165 169 163 127 112 100 86 117 145 157 178 168 168 166 163 161 158 151 154 154 157 151 148 173 182 83 155 144 133 4 60 56 49 51 44 35 32 33 47
185 171 174 162 168 165 158 150 158 164 159 170 172 168 170 170 173 171 166 164 158 156 159 165 163 170 154 154 109 358 329 115 153 139 85 84 69 56 51 44 41 40 28
182 171 171 168 168 162 175 175 166 167 163 149 154 157 164 170 174 175 173 169 164 166 165 171 169 164 171 150 145 155 92 17 103 137 141 146 103 87 70 58 58 43 43
177 182 170 167 164 166 175 182 173 176 161 155 152 160 167 167 174 180 178 173 174 172 169 169 174 169 177 160 144 172 156 162 171 133 115 145 126 103 108 97 75 59 48